| time (UTC) | temp F | wind direction | speed MPH | gust MPH | rain 1hr in | rain 24hr in | rain mn in | humidity % | barometer mb |
| 20260510081659 | 53 | 63 | 0.0 | 0.0 | 0.00 | 0.00 | 0.00 | 59 | 1013.4 |
| 20260510080659 | 53 | 16 | 1.0 | 2.0 | 0.00 | 0.00 | 0.00 | 59 | 1013.4 |
| 20260510075659 | 53 | 16 | 0.0 | 0.0 | 0.00 | 0.00 | 0.00 | 60 | 1013.5 |
| 20260510074659 | 53 | 16 | 0.0 | 0.0 | 0.00 | 0.00 | 0.00 | 58 | 1013.4 |
| 20260510043657 | 61 | 4 | 0.0 | 0.0 | 0.00 | 0.00 | 0.00 | 48 | 1013.2 |
| 20260510042657 | 62 | 4 | 0.0 | 0.0 | 0.00 | 0.00 | 0.00 | 49 | 1013.3 |
| 20260510041657 | 62 | 4 | 0.0 | 0.0 | 0.00 | 0.00 | 0.00 | 46 | 1013.2 |
| 20260510040656 | 63 | 4 | 0.0 | 0.0 | 0.00 | 0.00 | 0.00 | 44 | 1013.2 |
| 20260510035656 | 64 | 4 | 0.0 | 0.0 | 0.00 | 0.00 | 0.00 | 43 | 1013.0 |
| 20260510034656 | 65 | 4 | 0.0 | 0.0 | 0.00 | 0.00 | 0.00 | 43 | 1012.9 |
| 20260510033716 | 66 | 4 | 0.0 | 0.0 | 0.00 | 0.00 | 0.00 | 41 | 1012.8 |
| 20260510032656 | 67 | 4 | 0.0 | 2.0 | 0.00 | 0.00 | 0.00 | 41 | 1012.7 |
| 20260510031656 | 68 | 4 | 0.0 | 0.0 | 0.00 | 0.00 | 0.00 | 39 | 1012.7 |
| 20260510030656 | 69 | 4 | 0.0 | 0.0 | 0.00 | 0.00 | 0.00 | 38 | 1012.6 |
| 20260510025656 | 70 | 4 | 0.0 | 1.0 | 0.00 | 0.00 | 0.00 | 36 | 1012.5 |
| 20260510024656 | 71 | 4 | 0.0 | 0.0 | 0.00 | 0.00 | 0.00 | 35 | 1012.4 |
| 20260510023655 | 72 | 4 | 0.0 | 3.0 | 0.00 | 0.00 | 0.00 | 35 | 1012.4 |
| 20260510022655 | 72 | 5 | 2.0 | 5.0 | 0.00 | 0.00 | 0.00 | 33 | 1012.3 |
| 20260510021656 | 73 | 334 | 4.0 | 5.0 | 0.00 | 0.00 | 0.00 | 33 | 1012.4 |
| 20260510020655 | 74 | 350 | 1.0 | 3.0 | 0.00 | 0.00 | 0.00 | 32 | 1012.4 |
| 20260510015655 | 74 | 8 | 5.0 | 6.0 | 0.00 | 0.00 | 0.00 | 31 | 1012.4 |
| 20260510014655 | 74 | 343 | 3.0 | 6.0 | 0.00 | 0.00 | 0.00 | 30 | 1012.5 |
| 20260510013655 | 75 | 325 | 1.0 | 8.0 | 0.00 | 0.00 | 0.00 | 30 | 1012.5 |
| 20260510012655 | 75 | 355 | 3.0 | 10.0 | 0.00 | 0.00 | 0.00 | 30 | 1012.5 |
| 20260510011655 | 75 | 8 | 0.0 | 5.0 | 0.00 | 0.00 | 0.00 | 29 | 1012.6 |
| 20260510010655 | 76 | 309 | 3.0 | 10.0 | 0.00 | 0.00 | 0.00 | 30 | 1012.6 |
| 20260510005655 | 76 | 339 | 1.0 | 8.0 | 0.00 | 0.00 | 0.00 | 29 | 1012.5 |
| 20260509191652 | 72 | 233 | 7.0 | 7.0 | 0.00 | 0.00 | 0.00 | 43 | 1015.7 |
| 20260509190651 | 71 | 329 | 4.0 | 8.0 | 0.00 | 0.00 | 0.00 | 41 | 1015.7 |
| 20260509185651 | 71 | 305 | 5.0 | 8.0 | 0.00 | 0.00 | 0.00 | 42 | 1015.9 |
| 20260509184651 | 71 | 305 | 5.0 | 5.0 | 0.00 | 0.00 | 0.00 | 43 | 1016.1 |
| 20260509183651 | 71 | 322 | 4.0 | 10.0 | 0.00 | 0.00 | 0.00 | 41 | 1016.1 |
| 20260509182652 | 70 | 316 | 3.0 | 9.0 | 0.00 | 0.00 | 0.00 | 44 | 1016.1 |
| 20260509125648 | 51 | 291 | 0.0 | 3.0 | 0.00 | 0.00 | 0.00 | 64 | 1015.4 |
| 20260509124648 | 52 | 291 | 1.0 | 3.0 | 0.00 | 0.00 | 0.00 | 64 | 1015.3 |
| 20260509123648 | 52 | 292 | 1.0 | 3.0 | 0.00 | 0.00 | 0.00 | 63 | 1015.3 |
| 20260509122647 | 52 | 291 | 3.0 | 3.0 | 0.00 | 0.00 | 0.00 | 63 | 1015.2 |
| 20260509121647 | 53 | 291 | 3.0 | 3.0 | 0.00 | 0.00 | 0.00 | 62 | 1015.1 |
| 20260509120647 | 53 | 291 | 1.0 | 3.0 | 0.00 | 0.00 | 0.00 | 61 | 1015.0 |
| 20260509115647 | 54 | 289 | 1.0 | 7.0 | 0.00 | 0.00 | 0.00 | 60 | 1014.9 |
| 20260509114647 | 54 | 289 | 3.0 | 7.0 | 0.00 | 0.00 | 0.00 | 59 | 1014.9 |
| 20260509113647 | 54 | 296 | 4.0 | 7.0 | 0.00 | 0.00 | 0.00 | 59 | 1014.7 |
| 20260509112647 | 54 | 267 | 4.0 | 9.0 | 0.00 | 0.00 | 0.00 | 59 | 1014.8 |